FW5816 Weather Reports


time (UTC)temp
C
wind
direction
speed
KPH
gust
KPH
rain 1hr
cm
rain 24hr
cm
rain mn
cm
humidity
%
barometer
mb
20260504024530 12 208 3.2 8.0 0.00 0.00 0.00 60 1013.9
20260504024013 12 127 3.2 6.4 0.00 0.00 0.00 59 1014.1
20260504023515 12 164 3.2 6.4 0.00 0.00 0.00 59 1014.1
20260504023032 12 155 1.6 9.7 0.00 0.00 0.00 59 1014.0
20260504022512 12 130 1.6 9.7 0.00 0.00 0.00 59 1014.0
20260504022013 12 182 1.6 6.4 0.00 0.00 0.00 60 1014.0
20260504021535 12 148 1.6 6.4 0.00 0.00 0.00 60 1014.1
20260504021012 12 162 1.6 6.4 0.00 0.00 0.00 60 1014.1
20260504020514 12 0 1.6 6.4 0.00 0.00 0.00 60 1014.1
20260504020036 12 151 1.6 4.8 0.00 0.00 0.00 59 1014.1
20260504015512 13 154 1.6 4.8 0.00 0.00 0.00 59 1014.0
20260504015015 13 145 1.6 3.2 0.00 0.00 0.00 58 1014.1
20260504014531 13 143 0.0 1.6 0.00 0.00 0.00 56 1014.2
20260504014013 13 143 0.0 1.6 0.00 0.00 0.00 56 1014.3
20260504013516 13 0 0.0 1.6 0.00 0.00 0.00 55 1014.3
20260504013033 14 0 0.0 0.0 0.00 0.00 0.00 54 1014.2
20260504012515 14 153 0.0 0.0 0.00 0.00 0.00 53 1014.2
20260504012020 14 0 0.0 0.0 0.00 0.00 0.00 52 1014.2
20260504011532 15 0 0.0 1.6 0.00 0.00 0.00 52 1014.2
20260504011014 15 153 0.0 3.2 0.00 0.00 0.00 51 1014.1
20260504010512 15 153 0.0 3.2 0.00 0.00 0.00 51 1014.0
20260504010030 15 155 1.6 3.2 0.00 0.00 0.00 51 1013.9
20260504005516 15 0 0.0 8.0 0.00 0.00 0.00 51 1013.8
20260504005013 15 140 1.6 8.0 0.00 0.00 0.00 50 1013.7
20260504004532 15 131 1.6 8.0 0.00 0.00 0.00 50 1013.7
20260504004013 15 298 1.6 8.0 0.00 0.00 0.00 50 1013.5
20260504003515 15 162 1.6 11.3 0.00 0.00 0.00 49 1013.5
20260504003034 16 124 1.6 11.3 0.00 0.00 0.00 49 1013.6
20260504002515 16 152 1.6 12.9 0.00 0.00 0.00 48 1013.3
20260504002014 16 179 3.2 16.1 0.00 0.00 0.00 48 1013.1
20260504001534 16 262 4.8 16.1 0.00 0.00 0.00 46 1013.2
20260504001013 16 240 4.8 16.1 0.00 0.00 0.00 46 1013.3
20260504000512 16 161 4.8 19.3 0.00 0.00 0.00 45 1013.2
20260504000032 17 239 3.2 19.3 0.00 0.00 0.00 45 1013.1
20260503235512 17 217 3.2 17.7 0.00 0.00 0.00 44 1013.2
20260503235011 17 156 4.8 17.7 0.00 0.00 0.00 44 1013.2
20260503234543 17 220 6.4 14.5 0.00 0.00 0.00 43 1013.3
20260503234013 17 227 4.8 20.9 0.00 0.00 0.00 44 1013.1
20260503233513 17 212 6.4 20.9 0.00 0.00 0.00 43 1013.2
20260503233031 17 146 6.4 20.9 0.00 0.00 0.00 43 1013.1
20260503232512 17 217 6.4 17.7 0.00 0.00 0.00 42 1013.1
20260503232014 17 198 4.8 20.9 0.00 0.00 0.00 42 1013.2
20260503231532 17 144 8.0 20.9 0.00 0.00 0.00 42 1013.3
20260503231018 17 174 9.7 19.3 0.00 0.00 0.00 41 1013.4
20260503230518 17 268 4.8 17.7 0.00 0.00 0.00 42 1013.5
20260503230040 18 259 6.4 17.7 0.00 0.00 0.00 40 1013.6
20260503225516 17 229 8.0 17.7 0.00 0.00 0.00 41 1013.7
20260503225015 17 247 6.4 17.7 0.00 0.00 0.00 41 1014.0
20260503224532 17 275 6.4 22.5 0.00 0.00 0.00 41 1014.1
20260503224013 17 260 8.0 22.5 0.00 0.00 0.00 40 1014.0
20260503223518 17 234 4.8 17.7 0.00 0.00 0.00 41 1014.2
20260503223032 17 252 4.8 12.9 0.00 0.00 0.00 42 1014.3
20260503222513 17 216 6.4 16.1 0.00 0.00 0.00 40 1014.4
20260503222017 17 240 6.4 16.1 0.00 0.00 0.00 40 1014.5
20260503221531 17 212 6.4 20.9 0.00 0.00 0.00 39 1014.6
20260503221018 17 193 12.9 25.7 0.00 0.00 0.00 39 1014.6
20260503220515 17 301 11.3 25.7 0.00 0.00 0.00 38 1014.4
20260503220044 17 260 8.0 22.5 0.00 0.00 0.00 39 1014.5
20260503215515 17 238 11.3 32.2 0.00 0.00 0.00 37 1014.6
20260503215013 17 202 17.7 32.2 0.00 0.00 0.00 37 1014.9
20260503214530 17 221 8.0 20.9 0.00 0.00 0.00 39 1015.0
20260503214012 17 292 12.9 25.7 0.00 0.00 0.00 38 1014.9
20260503213514 17 229 12.9 25.7 0.00 0.00 0.00 38 1015.1
20260503213032 18 224 12.9 24.1 0.00 0.00 0.00 37 1015.1
20260503212513 18 210 9.7 24.1 0.00 0.00 0.00 38 1015.1
20260503212015 18 267 9.7 19.3 0.00 0.00 0.00 38 1015.2
20260503211532 18 229 8.0 25.7 0.00 0.00 0.00 38 1015.1
20260503211015 17 249 6.4 25.7 0.00 0.00 0.00 38 1014.8
20260503210513 17 172 12.9 25.7 0.00 0.00 0.00 38 1014.9
20260503210031 17 203 8.0 19.3 0.00 0.00 0.00 38 1015.0
20260503205513 17 198 9.7 25.7 0.00 0.00 0.00 38 1015.1
20260503205014 17 227 9.7 25.7 0.00 0.00 0.00 38 1015.2
20260503204532 18 172 8.0 17.7 0.00 0.00 0.00 40 1015.5
20260503204014 17 295 8.0 24.1 0.00 0.00 0.00 40 1015.5
20260503203511 17 204 6.4 24.1 0.00 0.00 0.00 39 1015.3
20260503203033 17 250 8.0 24.1 0.00 0.00 0.00 39 1015.7
20260503202513 17 233 6.4 20.9 0.00 0.00 0.00 39 1015.7
20260503202014 17 205 8.0 22.5 0.00 0.00 0.00 40 1015.9
20260503201533 17 252 9.7 22.5 0.00 0.00 0.00 37 1015.8
20260503201012 17 276 11.3 22.5 0.00 0.00 0.00 39 1016.0
20260503200512 16 172 8.0 25.7 0.00 0.00 0.00 40 1016.0
20260503200032 17 288 11.3 25.7 0.00 0.00 0.00 38 1016.1
20260503195511 17 274 11.3 24.1 0.00 0.00 0.00 38 1016.0
20260503195015 17 326 8.0 27.4 0.00 0.00 0.00 38 1016.3
20260503194531 17 15 14.5 27.4 0.00 0.00 0.00 38 1016.4
20260503194012 17 260 8.0 20.9 0.00 0.00 0.00 40 1016.6
20260503193516 16 217 4.8 25.7 0.00 0.00 0.00 39 1016.8
20260503193035 17 184 14.5 25.7 0.00 0.00 0.00 38 1016.8
20260503192514 17 139 6.4 20.9 0.00 0.00 0.00 39 1016.9
20260503192013 17 139 6.4 20.9 0.00 0.00 0.00 38 1017.0
20260503191531 17 163 6.4 19.3 0.00 0.00 0.00 39 1017.1
20260503191013 17 129 6.4 22.5 0.00 0.00 0.00 36 1017.2
20260503190512 16 239 11.3 22.5 0.00 0.00 0.00 39 1017.1
20260503190032 16 188 9.7 22.5 0.00 0.00 0.00 38 1017.4
20260503185513 16 226 4.8 22.5 0.00 0.00 0.00 39 1017.4
20260503185014 16 259 4.8 22.5 0.00 0.00 0.00 40 1017.6
20260503184532 16 146 8.0 22.5 0.00 0.00 0.00 37 1017.6
20260503184013 16 167 3.2 25.7 0.00 0.00 0.00 41 1017.8
20260503183516 16 246 11.3 25.7 0.00 0.00 0.00 40 1017.9
20260503183044 16 248 12.9 25.7 0.00 0.00 0.00 39 1017.9
20260503182512 16 176 4.8 17.7 0.00 0.00 0.00 40 1017.8
20260503182010 15 130 9.7 22.5 0.00 0.00 0.00 41 1017.9
20260503181531 15 284 9.7 22.5 0.00 0.00 0.00 40 1018.1
20260503181014 16 305 9.7 22.5 0.00 0.00 0.00 41 1018.1
20260503180512 16 290 6.4 22.5 0.00 0.00 0.00 39 1018.1
20260503180031 16 216 6.4 22.5 0.00 0.00 0.00 39 1018.2
20260503175512 15 276 9.7 22.5 0.00 0.00 0.00 37 1018.3
20260503175018 15 134 6.4 25.7 0.00 0.00 0.00 39 1018.4
20260503174533 15 223 9.7 25.7 0.00 0.00 0.00 38 1018.5
20260503174013 16 231 8.0 25.7 0.00 0.00 0.00 38 1018.4
20260503173515 15 184 6.4 19.3 0.00 0.00 0.00 39 1018.7
20260503173030 15 195 9.7 22.5 0.00 0.00 0.00 38 1018.8
20260503172513 15 186 12.9 22.5 0.00 0.00 0.00 39 1018.8
20260503172017 15 255 4.8 19.3 0.00 0.00 0.00 39 1018.9
20260503171532 15 210 6.4 19.3 0.00 0.00 0.00 40 1019.0
20260503171013 15 259 4.8 17.7 0.00 0.00 0.00 43 1019.1
20260503170511 15 233 8.0 17.7 0.00 0.00 0.00 40 1019.2
20260503151012 13 172 6.4 17.7 0.00 0.00 0.00 47 1020.3
20260503150512 13 243 6.4 17.7 0.00 0.00 0.00 46 1020.3
20260503131013 9 150 3.2 11.3 0.00 0.00 0.00 63 1020.3
20260503130512 9 143 4.8 11.3 0.00 0.00 0.00 62 1020.3
20260503110512 2 141 0.0 3.2 0.00 0.00 0.00 81 1019.6
20260503090513 1 0 0.0 0.0 0.00 0.00 0.00 93 1019.2
20260503081535 0 0 0.0 0.0 0.00 0.00 0.00 91 1019.1
20260503081013 0 0 0.0 0.0 0.00 0.00 0.00 91 1019.0
20260503080511 1 0 0.0 0.0 0.00 0.00 0.00 91 1019.0
20260503072512 1 0 0.0 0.0 0.00 0.00 0.00 92 1018.8
20260503072013 1 0 0.0 0.0 0.00 0.00 0.00 91 1018.8
20260503071534 1 0 0.0 0.0 0.00 0.00 0.00 91 1018.8
20260503071012 1 0 0.0 0.0 0.00 0.00 0.00 91 1018.8
20260503070512 1 0 0.0 0.0 0.00 0.00 0.00 90 1018.9
20260503055013 2 0 0.0 0.0 0.00 0.00 0.00 88 1019.2
20260503054533 2 0 0.0 0.0 0.00 0.00 0.00 87 1019.1
20260503054013 2 0 0.0 0.0 0.00 0.00 0.00 87 1019.2
20260503053513 2 0 0.0 0.0 0.00 0.00 0.00 87 1019.3
20260503053034 2 0 0.0 0.0 0.00 0.00 0.00 87 1019.2
20260503052513 3 0 0.0 0.0 0.00 0.00 0.00 86 1019.2
20260503052013 3 0 0.0 0.0 0.00 0.00 0.00 85 1019.2
20260503051530 3 0 0.0 0.0 0.00 0.00 0.00 84 1019.2
20260503051012 3 0 0.0 0.0 0.00 0.00 0.00 83 1019.2
20260503050513 3 0 0.0 0.0 0.00 0.00 0.00 83 1019.1
20260503050036 3 0 0.0 1.6 0.00 0.00 0.00 83 1019.1
20260503045514 3 0 0.0 1.6 0.00 0.00 0.00 83 1019.1
20260503045019 3 0 0.0 1.6 0.00 0.00 0.00 84 1019.0
20260503044532 3 0 0.0 0.0 0.00 0.00 0.00 84 1019.2
20260503044012 3 0 0.0 0.0 0.00 0.00 0.00 83 1019.1
20260503043510 3 0 0.0 0.0 0.00 0.00 0.00 82 1019.2
20260503043031 3 0 0.0 0.0 0.00 0.00 0.00 82 1019.3
20260503042513 3 0 0.0 0.0 0.00 0.00 0.00 81 1019.2
20260503042014 3 0 0.0 0.0 0.00 0.00 0.00 81 1019.1
20260503041532 4 0 0.0 0.0 0.00 0.00 0.00 79 1019.1
20260503041014 5 0 0.0 0.0 0.00 0.00 0.00 79 1019.1
20260503040513 5 0 0.0 1.6 0.00 0.00 0.00 78 1019.0
20260503040036 5 0 0.0 1.6 0.00 0.00 0.00 76 1019.1
20260503035513 5 42 0.0 1.6 0.00 0.00 0.00 76 1019.1
20260503035014 5 0 0.0 1.6 0.00 0.00 0.00 77 1019.0
20260503034536 5 0 0.0 0.0 0.00 0.00 0.00 76 1019.1
20260503034012 5 0 0.0 1.6 0.00 0.00 0.00 75 1019.1
20260503033511 6 0 0.0 1.6 0.00 0.00 0.00 74 1019.0
20260503033031 6 42 0.0 1.6 0.00 0.00 0.00 74 1019.1
20260503032515 6 0 0.0 1.6 0.00 0.00 0.00 75 1019.1
20260503032020 6 0 0.0 1.6 0.00 0.00 0.00 74 1019.0
20260503031535 6 0 0.0 1.6 0.00 0.00 0.00 73 1019.0
20260503031016 6 43 0.0 1.6 0.00 0.00 0.00 73 1019.0
20260503030512 7 42 0.0 1.6 0.00 0.00 0.00 73 1019.0
20260503030031 7 43 0.0 1.6 0.00 0.00 0.00 73 1019.0
20260503025512 7 42 0.0 1.6 0.00 0.00 0.00 72 1018.9
20260503025014 7 0 0.0 1.6 0.00 0.00 0.00 71 1018.8